Year,Month,Day,Hour,Minute,Value (Times are PST for barometer in hPa)
2020,03,13,00,00,1053.40
2020,03,13,00,01,1053.47
2020,03,13,00,02,1053.44
2020,03,13,00,03,1053.47
2020,03,13,00,04,1053.47
2020,03,13,00,05,1053.51
2020,03,13,00,06,1053.51
2020,03,13,00,07,1053.47
2020,03,13,00,08,1053.44
2020,03,13,00,09,1053.47
2020,03,13,00,10,1053.51
2020,03,13,00,11,1053.54
2020,03,13,00,12,1053.57
2020,03,13,00,13,1053.61
2020,03,13,00,14,1053.64
2020,03,13,00,15,1053.68
2020,03,13,00,16,1053.71
2020,03,13,00,17,1053.71
2020,03,13,00,18,1053.68
2020,03,13,00,19,1053.71
2020,03,13,00,20,1053.68
2020,03,13,00,21,1053.71
2020,03,13,00,22,1053.71
2020,03,13,00,23,1053.68
2020,03,13,00,24,1053.68
2020,03,13,00,25,1053.71
2020,03,13,00,26,1053.74
2020,03,13,00,27,1053.78
2020,03,13,00,28,1053.78
2020,03,13,00,29,1053.74
2020,03,13,00,30,1053.81
2020,03,13,00,31,1053.74
2020,03,13,00,32,1053.78
2020,03,13,00,33,1053.78
2020,03,13,00,34,1053.84
2020,03,13,00,35,1053.84
2020,03,13,00,36,1053.88
2020,03,13,00,37,1053.88
2020,03,13,00,38,1053.88
2020,03,13,00,39,1053.95
2020,03,13,00,40,1053.98
2020,03,13,00,41,1054.05
2020,03,13,00,42,1054.15
2020,03,13,00,43,1054.15
2020,03,13,00,44,1054.18
2020,03,13,00,45,1054.25
2020,03,13,00,46,1054.35
2020,03,13,00,47,1054.35
2020,03,13,00,48,1054.39
2020,03,13,00,49,1054.35
2020,03,13,00,50,1054.32
2020,03,13,00,51,1054.35
2020,03,13,00,52,1054.39
2020,03,13,00,53,1054.35
2020,03,13,00,54,1054.39
2020,03,13,00,55,1054.28
2020,03,13,00,56,1054.22
2020,03,13,00,57,1054.15
2020,03,13,00,58,1054.15
2020,03,13,00,59,1054.18
2020,03,13,01,00,1054.25
2020,03,13,01,01,1054.25
2020,03,13,01,02,1054.25
2020,03,13,01,03,1054.28
2020,03,13,01,04,1054.35
2020,03,13,01,05,1054.39
2020,03,13,01,06,1054.42
2020,03,13,01,07,1054.42
2020,03,13,01,08,1054.42
2020,03,13,01,09,1054.45
2020,03,13,01,10,1054.49
2020,03,13,01,11,1054.49
2020,03,13,01,12,1054.42
2020,03,13,01,13,1054.39
2020,03,13,01,14,1054.32
2020,03,13,01,15,1054.28
2020,03,13,01,16,1054.18
2020,03,13,01,17,1054.22
2020,03,13,01,18,1054.22
2020,03,13,01,19,1054.35
2020,03,13,01,20,1054.39
2020,03,13,01,21,1054.42
2020,03,13,01,22,1054.42
2020,03,13,01,23,1054.35
2020,03,13,01,24,1054.32
2020,03,13,01,25,1054.32
2020,03,13,01,26,1054.35
2020,03,13,01,27,1054.32
2020,03,13,01,28,1054.22
2020,03,13,01,29,1054.18
2020,03,13,01,30,1054.18
2020,03,13,01,31,1054.15
2020,03,13,01,32,1054.12
2020,03,13,01,33,1054.05
2020,03,13,01,34,1054.08
2020,03,13,01,35,1054.12
2020,03,13,01,36,1054.15
2020,03,13,01,37,1054.18
2020,03,13,01,38,1054.15
2020,03,13,01,39,1054.05
2020,03,13,01,40,1054.05
2020,03,13,01,41,1054.01
2020,03,13,01,42,1054.08
2020,03,13,01,43,1054.05
2020,03,13,01,44,1054.01
2020,03,13,01,45,1054.01
2020,03,13,01,46,1054.01
2020,03,13,01,47,1053.95
2020,03,13,01,48,1053.88
2020,03,13,01,49,1053.88
2020,03,13,01,50,1053.88
2020,03,13,01,51,1053.88
2020,03,13,01,52,1053.98
2020,03,13,01,53,1054.01
2020,03,13,01,54,1054.08
2020,03,13,01,55,1054.12
2020,03,13,01,56,1054.18
2020,03,13,01,57,1054.28
2020,03,13,01,58,1054.35
2020,03,13,01,59,1054.39
2020,03,13,02,00,1054.45
2020,03,13,02,01,1054.39
2020,03,13,02,02,1054.42
2020,03,13,02,03,1054.45
2020,03,13,02,04,1054.42
2020,03,13,02,05,1054.42
2020,03,13,02,06,1054.39
2020,03,13,02,07,1054.42
2020,03,13,02,08,1054.39
2020,03,13,02,09,1054.42
2020,03,13,02,10,1054.42
2020,03,13,02,11,1054.39
2020,03,13,02,12,1054.39
2020,03,13,02,13,1054.35
2020,03,13,02,14,1054.39
2020,03,13,02,15,1054.32
2020,03,13,02,16,1054.32
2020,03,13,02,17,1054.32
2020,03,13,02,18,1054.39
2020,03,13,02,19,1054.52
2020,03,13,02,20,1054.49
2020,03,13,02,21,1054.49
2020,03,13,02,22,1054.49
2020,03,13,02,23,1054.42
2020,03,13,02,24,1054.42
2020,03,13,02,25,1054.35
2020,03,13,02,26,1054.25
2020,03,13,02,27,1054.18
2020,03,13,02,28,1054.18
2020,03,13,02,29,1054.15
2020,03,13,02,30,1054.18
2020,03,13,02,31,1054.15
2020,03,13,02,32,1054.22
2020,03,13,02,33,1054.28
2020,03,13,02,34,1054.28
2020,03,13,02,35,1054.32
2020,03,13,02,36,1054.39
2020,03,13,02,37,1054.28
2020,03,13,02,38,1054.25
2020,03,13,02,39,1054.28
2020,03,13,02,40,1054.32
2020,03,13,02,41,1054.35
2020,03,13,02,42,1054.28
2020,03,13,02,43,1054.28
2020,03,13,02,44,1054.18
2020,03,13,02,45,1054.18
2020,03,13,02,46,1054.08
2020,03,13,02,47,1054.05
2020,03,13,02,48,1053.98
2020,03,13,02,49,1054.01
2020,03,13,02,50,1053.98
2020,03,13,02,51,1053.91
2020,03,13,02,52,1053.95
2020,03,13,02,53,1053.95
2020,03,13,02,54,1053.95
2020,03,13,02,55,1054.01
2020,03,13,02,56,1054.01
2020,03,13,02,57,1054.01
2020,03,13,02,58,1054.05
2020,03,13,02,59,1054.15
2020,03,13,03,00,1054.08
2020,03,13,03,01,1054.08
2020,03,13,03,02,1054.05
2020,03,13,03,03,1053.98
2020,03,13,03,04,1054.01
2020,03,13,03,05,1054.05
2020,03,13,03,06,1053.98
2020,03,13,03,07,1053.91
2020,03,13,03,08,1053.91
2020,03,13,03,09,1053.88
2020,03,13,03,10,1053.91
2020,03,13,03,11,1053.91
2020,03,13,03,12,1053.95
2020,03,13,03,13,1054.01
2020,03,13,03,14,1054.05
2020,03,13,03,15,1054.05
2020,03,13,03,16,1054.08
2020,03,13,03,17,1054.05
2020,03,13,03,18,1053.95
2020,03,13,03,19,1053.88
2020,03,13,03,20,1053.84
2020,03,13,03,21,1053.88
2020,03,13,03,22,1053.81
2020,03,13,03,23,1053.81
2020,03,13,03,24,1053.74
2020,03,13,03,25,1053.71
2020,03,13,03,26,1053.68
2020,03,13,03,27,1053.64
2020,03,13,03,28,1053.71
2020,03,13,03,29,1053.68
2020,03,13,03,30,1053.71
2020,03,13,03,31,1053.71
2020,03,13,03,32,1053.71
2020,03,13,03,33,1053.84
2020,03,13,03,34,1053.88
2020,03,13,03,35,1053.88
2020,03,13,03,36,1053.84
2020,03,13,03,37,1053.81
2020,03,13,03,38,1053.78
2020,03,13,03,39,1053.74
2020,03,13,03,40,1053.71
2020,03,13,03,41,1053.71
2020,03,13,03,42,1053.71
2020,03,13,03,43,1053.68
2020,03,13,03,44,1053.68
2020,03,13,03,45,1053.68
2020,03,13,03,46,1053.64
2020,03,13,03,47,1053.61
2020,03,13,03,48,1053.64
2020,03,13,03,49,1053.57
2020,03,13,03,50,1053.57
2020,03,13,03,51,1053.61
2020,03,13,03,52,1053.61
2020,03,13,03,53,1053.61
2020,03,13,03,54,1053.61
2020,03,13,03,55,1053.64
2020,03,13,03,56,1053.64
2020,03,13,03,57,1053.68
2020,03,13,03,58,1053.68
2020,03,13,03,59,1053.74
2020,03,13,04,00,1053.74
2020,03,13,04,01,1053.78
2020,03,13,04,02,1053.81
2020,03,13,04,03,1053.84
2020,03,13,04,04,1053.91
2020,03,13,04,05,1053.95
2020,03,13,04,06,1054.01
2020,03,13,04,07,1053.98
2020,03,13,04,08,1053.98
2020,03,13,04,09,1054.01
2020,03,13,04,10,1054.01
2020,03,13,04,11,1054.05
2020,03,13,04,12,1054.05
2020,03,13,04,13,1054.08
2020,03,13,04,14,1054.12
2020,03,13,04,15,1054.25
2020,03,13,04,16,1054.22
2020,03,13,04,17,1054.22
2020,03,13,04,18,1054.15
2020,03,13,04,19,1054.12
2020,03,13,04,20,1054.12
2020,03,13,04,21,1054.08
2020,03,13,04,22,1054.08
2020,03,13,04,23,1054.08
2020,03,13,04,24,1054.08
2020,03,13,04,25,1054.01
2020,03,13,04,26,1054.01
2020,03,13,04,27,1054.05
2020,03,13,04,28,1054.05
2020,03,13,04,29,1054.01
2020,03,13,04,30,1054.01
2020,03,13,04,31,1054.01
2020,03,13,04,32,1053.98
2020,03,13,04,33,1053.88
2020,03,13,04,34,1053.84
2020,03,13,04,35,1053.81
2020,03,13,04,36,1053.78
2020,03,13,04,37,1053.74
2020,03,13,04,38,1053.71
2020,03,13,04,39,1053.74
2020,03,13,04,40,1053.74
2020,03,13,04,41,1053.74
2020,03,13,04,42,1053.78
2020,03,13,04,43,1053.81
2020,03,13,04,44,1053.88
2020,03,13,04,45,1053.84
2020,03,13,04,46,1053.81
2020,03,13,04,47,1053.78
2020,03,13,04,48,1053.74
2020,03,13,04,49,1053.74
2020,03,13,04,50,1053.74
2020,03,13,04,51,1053.74
2020,03,13,04,52,1053.71
2020,03,13,04,53,1053.71
2020,03,13,04,54,1053.68
2020,03,13,04,55,1053.61
2020,03,13,04,56,1053.57
2020,03,13,04,57,1053.57
2020,03,13,04,58,1053.64
2020,03,13,04,59,1053.71
2020,03,13,05,00,1053.74
2020,03,13,05,01,1053.74
2020,03,13,05,02,1053.78
2020,03,13,05,03,1053.78
2020,03,13,05,04,1053.74
2020,03,13,05,05,1053.74
2020,03,13,05,06,1053.71
2020,03,13,05,07,1053.61
2020,03,13,05,08,1053.64
2020,03,13,05,09,1053.64
2020,03,13,05,10,1053.68
2020,03,13,05,11,1053.71
2020,03,13,05,12,1053.71
2020,03,13,05,13,1053.68
2020,03,13,05,14,1053.64
2020,03,13,05,15,1053.71
2020,03,13,05,16,1053.74
2020,03,13,05,17,1053.78
2020,03,13,05,18,1053.78
2020,03,13,05,19,1053.78
2020,03,13,05,20,1053.78
2020,03,13,05,21,1053.78
2020,03,13,05,22,1053.78
2020,03,13,05,23,1053.71
2020,03,13,05,24,1053.74
2020,03,13,05,25,1053.71
2020,03,13,05,26,1053.71
2020,03,13,05,27,1053.78
2020,03,13,05,28,1053.84
2020,03,13,05,29,1053.88
2020,03,13,05,30,1053.91
2020,03,13,05,31,1053.95
2020,03,13,05,32,1053.95
2020,03,13,05,33,1054.01
2020,03,13,05,34,1054.01
2020,03,13,05,35,1053.98
2020,03,13,05,36,1053.91
2020,03,13,05,37,1053.84
2020,03,13,05,38,1053.78
2020,03,13,05,39,1053.81
2020,03,13,05,40,1053.95
2020,03,13,05,41,1054.01
2020,03,13,05,42,1054.01
2020,03,13,05,43,1054.01
2020,03,13,05,44,1054.05
2020,03,13,05,45,1054.08
2020,03,13,05,46,1054.05
2020,03,13,05,47,1054.08
2020,03,13,05,48,1054.12
2020,03,13,05,49,1054.08
2020,03,13,05,50,1054.05
2020,03,13,05,51,1053.98
2020,03,13,05,52,1053.95
2020,03,13,05,53,1053.95
2020,03,13,05,54,1053.95
2020,03,13,05,55,1053.91
2020,03,13,05,56,1053.91
2020,03,13,05,57,1053.91
2020,03,13,05,58,1053.91
2020,03,13,05,59,1053.91
2020,03,13,06,00,1053.88
2020,03,13,06,01,1053.88
2020,03,13,06,02,1053.84
2020,03,13,06,03,1053.74
2020,03,13,06,04,1053.68
2020,03,13,06,05,1053.57
2020,03,13,06,06,1053.61
2020,03,13,06,07,1053.57
2020,03,13,06,08,1053.57
2020,03,13,06,09,1053.61
2020,03,13,06,10,1053.61
2020,03,13,06,11,1053.64
2020,03,13,06,12,1053.61
2020,03,13,06,13,1053.57
2020,03,13,06,14,1053.54
2020,03,13,06,15,1053.54
2020,03,13,06,16,1053.54
2020,03,13,06,17,1053.54
2020,03,13,06,18,1053.47
2020,03,13,06,19,1053.47
2020,03,13,06,20,1053.51
2020,03,13,06,21,1053.44
2020,03,13,06,22,1053.44
2020,03,13,06,23,1053.44
2020,03,13,06,24,1053.44
2020,03,13,06,25,1053.40
2020,03,13,06,26,1053.37
2020,03,13,06,27,1053.30
2020,03,13,06,28,1053.37
2020,03,13,06,29,1053.44
2020,03,13,06,30,1053.40
2020,03,13,06,31,1053.37
2020,03,13,06,32,1053.37
2020,03,13,06,33,1053.44
2020,03,13,06,34,1053.40
2020,03,13,06,35,1053.40
2020,03,13,06,36,1053.47
2020,03,13,06,37,1053.51
2020,03,13,06,38,1053.51
2020,03,13,06,39,1053.51
2020,03,13,06,40,1053.57
2020,03,13,06,41,1053.57
2020,03,13,06,42,1053.51
2020,03,13,06,43,1053.51
2020,03,13,06,44,1053.54
2020,03,13,06,45,1053.54
2020,03,13,06,46,1053.44
2020,03,13,06,47,1053.47
2020,03,13,06,48,1053.40
2020,03,13,06,49,1053.40
2020,03,13,06,50,1053.37
2020,03,13,06,51,1053.37
2020,03,13,06,52,1053.34
2020,03,13,06,53,1053.30
2020,03,13,06,54,1053.34
2020,03,13,06,55,1053.34
2020,03,13,06,56,1053.30
2020,03,13,06,57,1053.27
2020,03,13,06,58,1053.34
2020,03,13,06,59,1053.30
2020,03,13,07,00,1053.27
2020,03,13,07,01,1053.24
2020,03,13,07,02,1053.27
2020,03,13,07,03,1053.20
2020,03,13,07,04,1053.27
2020,03,13,07,05,1053.27
2020,03,13,07,06,1053.40
2020,03,13,07,07,1053.47
2020,03,13,07,08,1053.51
2020,03,13,07,09,1053.47
2020,03,13,07,10,1053.47
2020,03,13,07,11,1053.47
2020,03,13,07,12,1053.44
2020,03,13,07,13,1053.44
2020,03,13,07,14,1053.30
2020,03,13,07,15,1053.27
2020,03,13,07,16,1053.24
2020,03,13,07,17,1053.24
2020,03,13,07,18,1053.17
2020,03,13,07,19,1053.10
2020,03,13,07,20,1053.20
2020,03,13,07,21,1053.24
2020,03,13,07,22,1053.30
2020,03,13,07,23,1053.30
2020,03,13,07,24,1053.34
2020,03,13,07,25,1053.24
2020,03,13,07,26,1053.20
2020,03,13,07,27,1053.13
2020,03,13,07,28,1053.17
2020,03,13,07,29,1053.17
2020,03,13,07,30,1053.13
2020,03,13,07,31,1053.13
2020,03,13,07,32,1053.10
2020,03,13,07,33,1053.13
2020,03,13,07,34,1053.07
2020,03,13,07,35,1053.10
2020,03,13,07,36,1053.17
2020,03,13,07,37,1053.20
2020,03,13,07,38,1053.13
2020,03,13,07,39,1053.17
2020,03,13,07,40,1053.07
2020,03,13,07,41,1053.17
2020,03,13,07,42,1053.13
2020,03,13,07,43,1053.17
2020,03,13,07,44,1053.10
2020,03,13,07,45,1053.00
2020,03,13,07,46,1053.00
2020,03,13,07,47,1053.00
2020,03,13,07,48,1053.00
2020,03,13,07,49,1052.96
2020,03,13,07,50,1052.93
2020,03,13,07,51,1052.93
2020,03,13,07,52,1052.90
2020,03,13,07,53,1052.86
2020,03,13,07,54,1052.83
2020,03,13,07,55,1052.86
2020,03,13,07,56,1052.86
2020,03,13,07,57,1052.83
2020,03,13,07,58,1052.83
2020,03,13,07,59,1052.79
2020,03,13,08,00,1052.76
2020,03,13,08,01,1052.73
2020,03,13,08,02,1052.52
2020,03,13,08,03,1052.43
2020,03,13,08,04,1052.59
2020,03,13,08,05,1052.59
2020,03,13,08,06,1052.59
2020,03,13,08,07,1052.46
2020,03,13,08,08,1052.46
2020,03,13,08,09,1052.46
2020,03,13,08,10,1052.39
2020,03,13,08,11,1052.42
2020,03,13,08,12,1052.39
2020,03,13,08,13,1052.42
2020,03,13,08,14,1052.39
2020,03,13,08,15,1052.42
2020,03,13,08,16,1052.46
2020,03,13,08,17,1052.49
2020,03,13,08,18,1052.49
2020,03,13,08,19,1052.49
2020,03,13,08,20,1052.49
2020,03,13,08,21,1052.49
2020,03,13,08,22,1052.52
2020,03,13,08,23,1052.63
2020,03,13,08,24,1052.66
2020,03,13,08,25,1052.59
2020,03,13,08,26,1052.52
2020,03,13,08,27,1052.46
2020,03,13,08,28,1052.39
2020,03,13,08,29,1052.39
2020,03,13,08,30,1052.46
2020,03,13,08,31,1052.49
2020,03,13,08,32,1052.49
2020,03,13,08,33,1052.56
2020,03,13,08,34,1052.49
2020,03,13,08,35,1052.52
2020,03,13,08,36,1052.49
2020,03,13,08,37,1052.46
2020,03,13,08,38,1052.39
2020,03,13,08,39,1052.32
2020,03,13,08,40,1052.29
2020,03,13,08,41,1052.39
2020,03,13,08,42,1052.35
2020,03,13,08,43,1052.35
2020,03,13,08,44,1052.32
2020,03,13,08,45,1052.39
2020,03,13,08,46,1052.49
2020,03,13,08,47,1052.46
2020,03,13,08,48,1052.46
2020,03,13,08,49,1052.46
2020,03,13,08,50,1052.42
2020,03,13,08,51,1052.42
2020,03,13,08,52,1052.39
2020,03,13,08,53,1052.46
2020,03,13,08,54,1052.42
2020,03,13,08,55,1052.56
2020,03,13,08,56,1052.63
2020,03,13,08,57,1052.66
2020,03,13,08,58,1052.66
2020,03,13,08,59,1052.66
2020,03,13,09,00,1052.69
2020,03,13,09,01,1052.66
2020,03,13,09,02,1052.66
2020,03,13,09,03,1052.66
2020,03,13,09,04,1052.66
2020,03,13,09,05,1052.66
2020,03,13,09,06,1052.76
2020,03,13,09,07,1052.79
2020,03,13,09,08,1052.86
2020,03,13,09,09,1052.90
2020,03,13,09,10,1052.93
2020,03,13,09,11,1053.00
2020,03,13,09,12,1053.00
2020,03,13,09,13,1053.07
2020,03,13,09,14,1053.17
2020,03,13,09,15,1053.17
2020,03,13,09,16,1053.13
2020,03,13,09,17,1053.13
2020,03,13,09,18,1053.13
2020,03,13,09,19,1053.17
2020,03,13,09,20,1053.17
2020,03,13,09,21,1053.07
2020,03,13,09,22,1053.03
2020,03,13,09,23,1052.96
2020,03,13,09,24,1052.93
2020,03,13,09,25,1052.93
2020,03,13,09,26,1052.90
2020,03,13,09,27,1052.90
2020,03,13,09,28,1052.79
2020,03,13,09,29,1052.79
2020,03,13,09,30,1052.76
2020,03,13,09,31,1052.76
2020,03,13,09,32,1052.76
2020,03,13,09,33,1052.73
2020,03,13,09,34,1052.73
2020,03,13,09,35,1052.69
2020,03,13,09,36,1052.63
2020,03,13,09,37,1052.63
2020,03,13,09,38,1052.49
2020,03,13,09,39,1052.46
2020,03,13,09,40,1052.39
2020,03,13,09,41,1052.42
2020,03,13,09,42,1052.49
2020,03,13,09,43,1052.49
2020,03,13,09,44,1052.49
2020,03,13,09,45,1052.46
2020,03,13,09,46,1052.46
2020,03,13,09,47,1052.39
2020,03,13,09,48,1052.46
2020,03,13,09,49,1052.46
2020,03,13,09,50,1052.46
2020,03,13,09,51,1052.39
2020,03,13,09,52,1052.39
2020,03,13,09,53,1052.35
2020,03,13,09,54,1052.25
2020,03,13,09,55,1052.25
2020,03,13,09,56,1052.22
2020,03,13,09,57,1052.19
2020,03,13,09,58,1052.15
2020,03,13,09,59,1052.15
2020,03,13,10,00,1052.15
2020,03,13,10,01,1052.12
2020,03,13,10,02,1052.08
2020,03,13,10,03,1052.02
2020,03,13,10,04,1051.98
2020,03,13,10,05,1052.02
2020,03,13,10,06,1052.12
2020,03,13,10,07,1052.15
2020,03,13,10,08,1052.19
2020,03,13,10,09,1052.15
2020,03,13,10,10,1052.15
2020,03,13,10,11,1052.12
2020,03,13,10,12,1052.15
2020,03,13,10,13,1052.22
2020,03,13,10,14,1052.32
2020,03,13,10,15,1052.39
2020,03,13,10,16,1052.46
2020,03,13,10,17,1052.42
2020,03,13,10,18,1052.32
2020,03,13,10,19,1052.32
2020,03,13,10,20,1052.32
2020,03,13,10,21,1052.32
2020,03,13,10,22,1052.35
2020,03,13,10,23,1052.29
2020,03,13,10,24,1052.22
2020,03,13,10,25,1052.22
2020,03,13,10,26,1052.29
2020,03,13,10,27,1052.29
2020,03,13,10,28,1052.25
2020,03,13,10,29,1052.29
2020,03,13,10,30,1052.29
2020,03,13,10,31,1052.29
2020,03,13,10,32,1052.32
2020,03,13,10,33,1052.32
2020,03,13,10,34,1052.29
2020,03,13,10,35,1052.35
2020,03,13,10,36,1052.35
2020,03,13,10,37,1052.39
2020,03,13,10,38,1052.42
2020,03,13,10,39,1052.42
2020,03,13,10,40,1052.35
2020,03,13,10,41,1052.32
2020,03,13,10,42,1052.29
2020,03,13,10,43,1052.15
2020,03,13,10,44,1052.15
2020,03,13,10,45,1052.15
2020,03,13,10,46,1052.12
2020,03,13,10,47,1052.15
2020,03,13,10,48,1052.22
2020,03,13,10,49,1052.25
2020,03,13,10,50,1052.29
2020,03,13,10,51,1052.29
2020,03,13,10,52,1052.25
2020,03,13,10,53,1052.22
2020,03,13,10,54,1052.25
2020,03,13,10,55,1052.35
2020,03,13,10,56,1052.32
2020,03,13,10,57,1052.32
2020,03,13,10,58,1052.32
2020,03,13,10,59,1052.35
2020,03,13,11,00,1052.32
2020,03,13,11,01,1052.32
2020,03,13,11,02,1052.22
2020,03,13,11,03,1052.02
2020,03,13,11,04,1051.95
2020,03,13,11,05,1051.95
2020,03,13,11,06,1051.91
2020,03,13,11,07,1051.88
2020,03,13,11,08,1051.85
2020,03,13,11,09,1051.81
2020,03,13,11,10,1051.61
2020,03,13,11,11,1051.61
2020,03,13,11,12,1051.61
2020,03,13,11,13,1051.61
2020,03,13,11,14,1051.64
2020,03,13,11,15,1051.61
2020,03,13,11,16,1051.61
2020,03,13,11,17,1051.71
2020,03,13,11,18,1051.75
2020,03,13,11,19,1051.85
2020,03,13,11,20,1051.95
2020,03,13,11,21,1052.05
2020,03,13,11,22,1052.05
2020,03,13,11,23,1052.05
2020,03,13,11,24,1051.98
2020,03,13,11,25,1051.85
2020,03,13,11,26,1051.78
2020,03,13,11,27,1051.75
2020,03,13,11,28,1051.81
2020,03,13,11,29,1051.85
2020,03,13,11,30,1051.88
2020,03,13,11,31,1051.88
2020,03,13,11,32,1051.95
2020,03,13,11,33,1052.05
2020,03,13,11,34,1052.12
2020,03,13,11,35,1052.15
2020,03,13,11,36,1052.22
2020,03,13,11,37,1052.15
2020,03,13,11,38,1052.19
2020,03,13,11,39,1052.15
2020,03,13,11,40,1052.15
2020,03,13,11,41,1052.12
2020,03,13,11,42,1052.05
2020,03,13,11,43,1051.91
2020,03,13,11,44,1051.71
2020,03,13,11,45,1051.47
2020,03,13,11,46,1051.44
2020,03,13,11,47,1051.54
2020,03,13,11,48,1051.75
2020,03,13,11,49,1051.88
2020,03,13,11,50,1051.95
2020,03,13,11,51,1051.95
2020,03,13,11,52,1051.95
2020,03,13,11,53,1051.98
2020,03,13,11,54,1052.02
2020,03,13,11,55,1051.95
2020,03,13,11,56,1051.98
2020,03,13,11,57,1051.88
2020,03,13,11,58,1051.85
2020,03,13,11,59,1051.78
2020,03,13,12,00,1051.71
2020,03,13,12,01,1051.78
2020,03,13,12,02,1051.81
2020,03,13,12,03,1051.81
2020,03,13,12,04,1051.81
2020,03,13,12,05,1051.85
2020,03,13,12,06,1051.88
2020,03,13,12,07,1051.91
2020,03,13,12,08,1051.98
2020,03,13,12,09,1051.98
2020,03,13,12,10,1051.91
2020,03,13,12,11,1051.98
2020,03,13,12,12,1051.95
2020,03,13,12,13,1051.91
2020,03,13,12,14,1051.88
2020,03,13,12,15,1051.85
2020,03,13,12,16,1051.78
2020,03,13,12,17,1051.78
2020,03,13,12,18,1051.71
2020,03,13,12,19,1051.64
2020,03,13,12,20,1051.54
2020,03,13,12,21,1051.37
2020,03,13,12,22,1051.34
2020,03,13,12,23,1051.27
2020,03,13,12,24,1051.20
2020,03,13,12,25,1051.17
2020,03,13,12,26,1051.07
2020,03,13,12,27,1051.07
2020,03,13,12,28,1051.07
2020,03,13,12,29,1051.07
2020,03,13,12,30,1051.03
2020,03,13,12,31,1051.03
2020,03,13,12,32,1051.07
2020,03,13,12,33,1051.10
2020,03,13,12,34,1051.10
2020,03,13,12,35,1051.07
2020,03,13,12,36,1051.00
2020,03,13,12,37,1051.10
2020,03,13,12,38,1051.07
2020,03,13,12,39,1051.10
2020,03,13,12,40,1051.14
2020,03,13,12,41,1051.10
2020,03,13,12,42,1051.07
2020,03,13,12,43,1051.10
2020,03,13,12,44,1051.10
2020,03,13,12,45,1051.10
2020,03,13,12,46,1051.03
2020,03,13,12,47,1051.10
2020,03,13,12,48,1051.00
2020,03,13,12,49,1051.00
2020,03,13,12,50,1051.00
2020,03,13,12,51,1050.97
2020,03,13,12,52,1050.90
2020,03,13,12,53,1051.00
2020,03,13,12,54,1051.00
2020,03,13,12,55,1050.97
2020,03,13,12,56,1050.93
2020,03,13,12,57,1050.93
2020,03,13,12,58,1051.00
2020,03,13,12,59,1050.97
2020,03,13,13,00,1050.93
2020,03,13,13,01,1050.90
2020,03,13,13,02,1050.90
2020,03,13,13,03,1050.90
2020,03,13,13,04,1050.97
2020,03,13,13,05,1050.93
2020,03,13,13,06,1050.93
2020,03,13,13,07,1050.90
2020,03,13,13,08,1050.93
2020,03,13,13,09,1051.03
2020,03,13,13,10,1051.17
2020,03,13,13,11,1051.17
2020,03,13,13,12,1051.17
2020,03,13,13,13,1051.14
2020,03,13,13,14,1051.10
2020,03,13,13,15,1051.20
2020,03,13,13,16,1051.17
2020,03,13,13,17,1051.20
2020,03,13,13,18,1051.20
2020,03,13,13,19,1051.24
2020,03,13,13,20,1051.27
2020,03,13,13,21,1051.27
2020,03,13,13,22,1051.30
2020,03,13,13,23,1051.34
2020,03,13,13,24,1051.34
2020,03,13,13,25,1051.30
2020,03,13,13,26,1051.27
2020,03,13,13,27,1051.17
2020,03,13,13,28,1051.14
2020,03,13,13,29,1050.97
2020,03,13,13,30,1050.90
2020,03,13,13,31,1050.86
2020,03,13,13,32,1050.93
2020,03,13,13,33,1050.97
2020,03,13,13,34,1050.97
2020,03,13,13,35,1050.97
2020,03,13,13,36,1050.97
2020,03,13,13,37,1050.86
2020,03,13,13,38,1050.86
2020,03,13,13,39,1050.83
2020,03,13,13,40,1050.80
2020,03,13,13,41,1050.66
2020,03,13,13,42,1050.56
2020,03,13,13,43,1050.56
2020,03,13,13,44,1050.53
2020,03,13,13,45,1050.53
2020,03,13,13,46,1050.56
2020,03,13,13,47,1050.56
2020,03,13,13,48,1050.53
2020,03,13,13,49,1050.53
2020,03,13,13,50,1050.59
2020,03,13,13,51,1050.56
2020,03,13,13,52,1050.59
2020,03,13,13,53,1050.59
2020,03,13,13,54,1050.53
2020,03,13,13,55,1050.56
2020,03,13,13,56,1050.56
2020,03,13,13,57,1050.46
2020,03,13,13,58,1050.42
2020,03,13,13,59,1050.36
2020,03,13,14,00,1050.29
2020,03,13,14,01,1050.32
2020,03,13,14,02,1050.25
2020,03,13,14,03,1050.22
2020,03,13,14,04,1050.19
2020,03,13,14,05,1050.15
2020,03,13,14,06,1050.15
2020,03,13,14,07,1050.12
2020,03,13,14,08,1050.12
2020,03,13,14,09,1050.12
2020,03,13,14,10,1050.19
2020,03,13,14,11,1050.15
2020,03,13,14,12,1050.15
2020,03,13,14,13,1050.12
2020,03,13,14,14,1050.12
2020,03,13,14,15,1050.22
2020,03,13,14,16,1050.19
2020,03,13,14,17,1050.22
2020,03,13,14,18,1050.15
2020,03,13,14,19,1050.19
2020,03,13,14,20,1050.15
2020,03,13,14,21,1050.12
2020,03,13,14,22,1050.12
2020,03,13,14,23,1050.09
2020,03,13,14,24,1050.02
2020,03,13,14,25,1050.05
2020,03,13,14,26,1050.09
2020,03,13,14,27,1050.02
2020,03,13,14,28,1049.98
2020,03,13,14,29,1050.05
2020,03,13,14,30,1050.02
2020,03,13,14,31,1050.05
2020,03,13,14,32,1049.95
2020,03,13,14,33,1049.92
2020,03,13,14,34,1049.88
2020,03,13,14,35,1049.95
2020,03,13,14,36,1049.95
2020,03,13,14,37,1049.95
2020,03,13,14,38,1049.95
2020,03,13,14,39,1049.95
2020,03,13,14,40,1049.92
2020,03,13,14,41,1049.81
2020,03,13,14,42,1049.92
2020,03,13,14,43,1049.81
2020,03,13,14,44,1049.85
2020,03,13,14,45,1049.81
2020,03,13,14,46,1049.81
2020,03,13,14,47,1049.78
2020,03,13,14,48,1049.75
2020,03,13,14,49,1049.65
2020,03,13,14,50,1049.68
2020,03,13,14,51,1049.65
2020,03,13,14,52,1049.65
2020,03,13,14,53,1049.68
2020,03,13,14,54,1049.68
2020,03,13,14,55,1049.68
2020,03,13,14,56,1049.65
2020,03,13,14,57,1049.61
2020,03,13,14,58,1049.61
2020,03,13,14,59,1049.61
2020,03,13,15,00,1049.71
2020,03,13,15,01,1049.75
2020,03,13,15,02,1049.75
2020,03,13,15,03,1049.75
2020,03,13,15,04,1049.75
2020,03,13,15,05,1049.75
2020,03,13,15,06,1049.78
2020,03,13,15,07,1049.71
2020,03,13,15,08,1049.75
2020,03,13,15,09,1049.71
2020,03,13,15,10,1049.75
2020,03,13,15,11,1049.78
2020,03,13,15,12,1049.78
2020,03,13,15,13,1049.81
2020,03,13,15,14,1049.92
2020,03,13,15,15,1049.88
2020,03,13,15,16,1049.88
2020,03,13,15,17,1049.92
2020,03,13,15,18,1049.88
2020,03,13,15,19,1049.92
2020,03,13,15,20,1049.88
2020,03,13,15,21,1049.92
2020,03,13,15,22,1049.85
2020,03,13,15,23,1049.85
2020,03,13,15,24,1049.81
2020,03,13,15,25,1049.78
2020,03,13,15,26,1049.81
2020,03,13,15,27,1049.81
2020,03,13,15,28,1049.78
2020,03,13,15,29,1049.75
2020,03,13,15,30,1049.68
2020,03,13,15,31,1049.68
2020,03,13,15,32,1049.71
2020,03,13,15,33,1049.78
2020,03,13,15,34,1049.71
2020,03,13,15,35,1049.71
2020,03,13,15,36,1049.68
2020,03,13,15,37,1049.54
2020,03,13,15,38,1049.58
2020,03,13,15,39,1049.54
2020,03,13,15,40,1049.51
2020,03,13,15,41,1049.44
2020,03,13,15,42,1049.44
2020,03,13,15,43,1049.48
2020,03,13,15,44,1049.37
2020,03,13,15,45,1049.31
2020,03,13,15,46,1049.24
2020,03,13,15,47,1049.21
2020,03,13,15,48,1049.17
2020,03,13,15,49,1049.10
2020,03,13,15,50,1049.07
2020,03,13,15,51,1049.10
2020,03,13,15,52,1049.17
2020,03,13,15,53,1049.17
2020,03,13,15,54,1049.21
2020,03,13,15,55,1049.21
2020,03,13,15,56,1049.21